Regional Weather Roundup
Issued by NWS

Home | Current Version | Previous Version | Graphics & Text | Print | Product List | Glossary On
Versions: 1 2 3 4 5 6 7 8 9 10 11 12 13 14 15 16 17 18 19 20 21 22 23 24 25 26 27 28 29 30 31 32 33 34 35 36 37 38 39 40 41 42 43 44 45 46 47 48 49 50
000
ASUS43 KOAX 030602
RWRNE

WEATHER ROUNDUP FOR NEBRASKA
NATIONAL WEATHER SERVICE OMAHA NE
1200 AM CST TUE MAR 03 2015

NOTES: SATELLITE DATA IS BEING USED TO AUGMENT CLOUD COVER ABOVE
       12000 FEET.
       "FAIR" INDICATES FEW OR NO CLOUDS BELOW 12,000 FEET WITH NO
       SIGNIFICANT WEATHER AND/OR OBSTRUCTIONS TO VISIBILITY.

  * THESE STATIONS DO NOT REPORT WEATHER SUCH AS RAIN...SNOW OR FOG.

NEZ001>004-019>022-054>056-030700-
NEBRASKA PANHANDLE

CITY           SKY/WX    TMP DP  RH WIND       PRES   REMARKS
SCOTTSBLUFF    MIX PCPN  30  26  85 SE7       29.60F FOG     WCI  23
6HR MIN TEMP:  29; 6HR MAX TEMP:  42; 6HR PCP: TRACE;

ALLIANCE       CLOUDY    29  25  85 CALM      29.62F
6HR MIN TEMP:  27; 6HR MAX TEMP:  32;

CHADRON        SNOW      30  28  92 CALM      29.66F VSB 1/2
6HR MIN TEMP:  30; 6HR MAX TEMP:  45; 6HR PCP: TRACE;

KIMBALL        CLOUDY    28  27  99 CALM      29.55F FOG
SIDNEY         CLOUDY    29  27  92 NE3       29.61F FOG
6HR MIN TEMP:  28; 6HR MAX TEMP:  31;

$$

NEZ057>060-069>072-079>082-030700-
SOUTHWEST NEBRASKA

CITY           SKY/WX    TMP DP  RH WIND       PRES   REMARKS
NORTH PLATTE   CLOUDY    28  22  78 SE7       29.65F WCI  21
6HR MIN TEMP:  28; 6HR MAX TEMP:  33;

IMPERIAL         N/A     29  25  85 E7        29.61R FOG     WCI  22
6HR MIN TEMP:  29; 6HR MAX TEMP:  31;

LEXINGTON      CLOUDY    29  21  70 SE15      29.69F WCI  18
MCCOOK         CLOUDY    31  24  75 SE12      29.63F WCI  22
6HR MIN TEMP:  31; 6HR MAX TEMP:  33;

$$

NEZ005>010-023>029-035>040-094-030700-
NORTH CENTRAL NEBRASKA

CITY           SKY/WX    TMP DP  RH WIND       PRES   REMARKS
VALENTINE      CLOUDY    32  24  72 SW12      29.69S WCI  23
6HR MIN TEMP:  31; 6HR MAX TEMP:  39;

AINSWORTH      CLOUDY    31  23  72 SW8       29.69S WCI  24
BROKEN BOW     CLOUDY    29  19  66 S21       29.68F WCI  16
6HR MIN TEMP:  29; 6HR MAX TEMP:  35;

ORD            CLOUDY    29  16  58 S10G20    29.73F WCI  20
6HR MIN TEMP:  29; 6HR MAX TEMP:  35;

$$

NEZ041-046>049-061>064-073>077-083>087-030700-
SOUTH CENTRAL NEBRASKA

CITY           SKY/WX    TMP DP  RH WIND       PRES   REMARKS
GRAND ISLAND   CLOUDY    29  20  69 S15G23    29.79F WCI  18
6HR MIN TEMP:  29; 6HR MAX TEMP:  34;

AURORA         CLOUDY    30  21  69 S16       29.78F WCI  18
HASTINGS       CLOUDY    29  20  69 S13       29.76F WCI  19
6HR MIN TEMP:  29; 6HR MAX TEMP:  34;

HEBRON         FAIR      31  25  77 S10       29.83F WCI  22
KEARNEY *      CLOUDY    28  19  69 S16       29.73F WCI  17
$$

NEZ011>018-030>034-042>045-030700-
NORTHEAST NEBRASKA

CITY           SKY/WX    TMP DP  RH WIND       PRES   REMARKS
NORFOLK        FAIR      30  18  60 S14       29.80F WCI  19
6HR MIN TEMP:  30; 6HR MAX TEMP:  38;

ALBION         CLOUDY    30  18  61 S15       29.77F WCI  19
BLAIR          CLOUDY    32  20  62 SE13G23   29.87F WCI  22
COLUMBUS *     MOCLDY    30  16  55 S16       29.83F WCI  19
FREMONT        CLOUDY    32  22  65 SE13      29.87F WCI  23
TEKAMAH        CLOUDY    32  20  61 S15       29.89F WCI  22
6HR MIN TEMP:  32; 6HR MAX TEMP:  38;

$$

NEZ050>053-065>068-078-088>093-030700-
SOUTHEAST NEBRASKA

CITY           SKY/WX    TMP DP  RH WIND       PRES   REMARKS
LINCOLN        CLOUDY    32  22  66 S14       29.87F WCI  22
6HR MIN TEMP:  32; 6HR MAX TEMP:  38;

OMAHA EPPLEY   CLOUDY    32  20  61 SE17      29.90F WCI  21
6HR MIN TEMP:  32; 6HR MAX TEMP:  38;

BEATRICE       CLOUDY    32  25  76 S10       29.86F WCI  23
FALLS CITY     CLOUDY    34  23  64 S16       29.93F WCI  24
6HR MIN TEMP:  33; 6HR MAX TEMP:  36;

NEBRASKA CITY  CLOUDY    32  19  57 S16       29.91F WCI  21
$$

NEZ044-045-051>053-067-030700-
OMAHA AREA

CITY           SKY/WX    TMP DP  RH WIND       PRES   REMARKS
OMAHA EPPLEY   CLOUDY    32  20  61 SE17      29.90F WCI  21
6HR MIN TEMP:  32; 6HR MAX TEMP:  38;

BLAIR          CLOUDY    32  20  62 SE13G23   29.87F WCI  22
FREMONT        CLOUDY    32  22  65 SE13      29.87F WCI  23
OFFUTT AFB     CLOUDY    31  21  64 SE10      29.90F WCI  23
WAHOO          CLOUDY    32  21  63 S15       29.87F WCI  22
$$


USA.gov is the U.S. government's official web portal to all federal, state and local government web resources and services.